Погода в Маразе

Погода в Маразе : погода сейчас, прогноз погоды и архив. Всё, что Вы хотите узнать о погоде в Маразе!

Поиск расширенной информации на нашем сайте:

Другие новости

Новости СМИ2

Главная страница сайта

Новости сайта

03.07.2017

Напоминаем, что на нашем специализированном сайте Метеоцентр.Азия вы можете получить высокодетализированные автоматические прогнозы погоды по пунктам России, СНГ и мира в авиационном формате (включающие направление и скорость ветра, видимость, явления погоды, количество и форму облачности, нижнюю и верхнюю границу облачности).


Погода в Маразе - сегодня

Время (UTC), дата Ветер
(°,м/с) 
Видим.   Явления Облачность Т
(°С)
Тd
(°С)
f(%) Тe
(°С)
Pmin
(гПа)
dP
(гПа)
Po
(мм)
O2
(г/м3)
Тmin Tmax R s Состояние
почвы
03 20.05.18 тихо ()   20000 м    8/0 верхняя 
[Ci sp]
+12.2 +6.2 67 +12  1019.3  0.2  699  269           
09 20.05.18 180 (Ю) 20000 м    8/0 верхняя 
[Ci sp]
+24.2 +7.6 35 +24  1015.3  -0.9  699  257           
12 20.05.18 200 (Ю) 20000 м    4/0 верхняя 
[Ci sp]
+25.8 +9.2 35 +27  1013.7  -1  698  255           
15 20.05.18 190 (Ю) 20000 м    8/0 верхняя 
[Ci sp]
+21.7 +6.7 38 +22  1014.7  -0.2  698  259           
21 20.05.18 тихо ()   10 км    ясно 
+12.3 +5.9 65 +12  1018.3  -0.2  699  268           
00 21.05.18 тихо ()   10 км    4/0 верхняя 
[Ci sp]
+12.6 +6.5 66 +13  1017.1  -1  698  268           
03 21.05.18 тихо ()   20000 м    6/0 верхняя 
[Ci sp]
+11.9 +6.4 69 +12  1017.2  -0.2  698  268           
06 21.05.18 190 (Ю) 20000 м    8/0 средняя 
[Ac und]
+24.1 +6.8 33 +24  1014.4  0.8  698  257  +11.2         
09 21.05.18 200 (Ю) 20000 м    9/0 верхняя 
[Ci sp]
+23.5 +5 30 +24  1015.1  0.5  699  258           
12 21.05.18 160 (Ю) 20000 м    3/0 верхняя 
[Ci sp]
+26.7 +6.5 28 +27  1013.2  -0.9  698  255           
15 21.05.18 тихо ()   20000 м    8/0 верхняя 
[Ci sp]
+23 +11 47 +27  1014.4  0.2  698  257           
21 21.05.18 тихо ()   10 км    4/0 верхняя 
[Ci sp]
+13.7 +8.1 69 +14  1017.3  -0.3  698  266           
00 22.05.18 020 (С) 10 км    4/0 верхняя 
[Ci sp]
+19.2 +8.9 51 +21  1016.2  0.5  699  261           
03 22.05.18 010 (С) 20000 м    8/0 средняя 
[Ac und]
+19 +9.8 55 +22  1016.8  -0.6  699  261           
06 22.05.18 100 (В) 20000 м    8/0 средняя 
[Ac und]
+25.5 +2.7 23 +26  1017.5  2.2  701  258  +13.1         
09 22.05.18 120 (ЮВ) 20000 м    6/0 средняя 
[Ac und]
+27.2 +1.1 18 +27  1017.5  0.4  701  257           
12 22.05.18 110 (В) 20000 м    3/3 600 м 
[Cu med, cong]
+27.7 +4.3 22 +28  1016.6  -0.6  701  256           
15 22.05.18 090 (В) 20000 м    3/0 верхняя 
[Ci sp]
+25.4 +2.1 22 +25  1018  0.6  701  258           
18 22.05.18 070 (В) 10 км    ясно 
+19 +3.2 35 +21  1020.7  0.8  702  264    +28.4       
21 22.05.18 тихо ()   10 км    1/0 верхняя 
[Ci sp]
+15.6 +2.1 40 +16  1021.3  -0.5  701  267           
00 23.05.18 тихо ()   10 км    ясно 
+13.5 +1.5 44 +14  1022  0.3  701  269           
03 23.05.18 тихо ()   20000 м    ясно 
+20.1 -1.9 23 +20  1020.8  0.4  702  263           
09 23.05.18 090 (В) 20000 м    ясно 
+29.1 +1.5 17 +29  1018.1  -0.3  702  255           
12 23.05.18 120 (ЮВ) 20000 м    1/0 верхняя 
[Ci sp]
+29.4 +5 21 +29  1017.6  -0.2  702  254           
15 23.05.18 080 (В) 20000 м    ясно 
+26.6 +3.8 23 +27  1017.4  -1  701  257           
Время (UTC), дата Ветер
(°,м/с) 
Видим.   Явления Облачность Т
(°С)
Тd
(°С)
f(%) Тe
(°С)
Pmin
(гПа)
dP
(гПа)
Po
(мм)
O2
(г/м3)
Тmin Tmax R s Состояние
почвы

Для получения пояснительной информации подведите курсор к названию столбца.

ПОГОДА в Маразе - архив

Всё, что Вы хотите узнать о погоде в Маразе - удобно и подробно!

Выберите нужную дату (начиная с 1 января 2015* года) и нажмите кнопку "Найти".
Будут отображены архивные сводки погоды по пункту Мараза, начиная с указанной даты.


Отображать данные в формате CSV (для использования в таблицах Excel)


Внимание! Наш архив погоды предназначен исключительно для личного некоммерческого использования в познавательных целях. Если Вам необходимы официальные справки о состоянии погоды (для производственных, юридических, коммерческих и т.п. целей), обращайтесь в органы Росгидромета.

*Примечание: данная дата относится к архиву по метеостанциям СССР (Россия, СНГ, Балтия).
Архив по метеостанциям Зарубежной Европы и Азии (кроме Китая) хранится 10 дней, по другим регионам земного шара (Китай, Африка, Америка, Австралия, Океания) - 1 день.

Мараза - район местоположения метеостанции


Название, широта, долгота, высота метеостанции:
Мараза 40.5°ш. 48.9°д. 755 м над ур. моря [Азербайджан]

Дополнительная информация

В oтличие oт бoльшинства пoгoдных сайтoв мы публикуем пoдрoбную метеoинфoрмацию в детальнoм прoфессиoнальнoм фoрмате.

Характеристики температуры и влажнoсти вoздуха измеряются на высoте 2 м в тени вдали oт зданий и деревьев.
Скoрoсть ветра измеряется на высoте 10 м (на урoвне рoста челoвека скoрoсть ветра ниже в 1.5-2 раза). Если метеoстанция нахoдится в гoрoде или в лесу, тo скoрoсть ветра занижена на 2-4 м/с пo сравнению с oткрытым местoм. Скoрoсть ветра над акватoриями крупных рек и oзёр, а также на вершинах хoлмoв на 2-5 м/с выше, чем в oбычных услoвиях.
Атмoсфернoе давление в разных тoчках местнoсти мoжет значительнo oтличаться oт давления на метеoстанции, в зависимoсти oт услoвий рельефа (при пoдъёме на 10 м давление пoнижается примернo на 1 мм рт.ст.).